Weather in Melikhovo

Russia / Belgorod Oblast     50°41′39″N   36°47′38″E
temp.,
°C
wind,
m/s
gust,
m/s
humid.,
%
clouds,
%
prec.,
mm/h
press.,
hPa
HPBL,
m
12 may, wed
wed1200:00+9e91677100 0.0 10201578
03:00+8e8158061 0.1 10201189
06:00+7ene6148573 0.0 1020631
09:00+10e91480100 0.2 10201254
12:00+9e61187100 1.4 10191197
15:00+9ese51092100 7.8 1017714
18:00+11ese5982100 1.2 1015861
21:00+9ese51391100 2.0 1015468
13 may, thu
thu1300:00+7se613935 0.5 1015398
03:00+6se4998100 0.5 1016228
06:00+7se3898100 0.0 1016295
09:00+12sse468635 0.0 1015623
12:00+15s4763100 0.0 10151204
15:00+17ssw4759100 0.0 10151606
18:00+16w0072100 0.0 101512
21:00+12ene338296 0.0 101524
14 may, fri
fri1400:00+12ene479196 0.0 1015111
03:00+13e4119295 0.0 1014214
06:00+13ese51191100 0.2 1013236
09:00+17se5128493 1.1 1012547
12:00+22sse796660 0.0 10121257
15:00+24sse6966100 0.0 10111344
18:00+22se4975100 0.0 1010345
21:00+19se61274100 1.0 1010250
15 may, sat
sat1500:00+16nne119478 3.9 101013
03:00+15sse229413 7.4 101022
06:00+14ssw228815 0.0 101138
09:00+18ssw467683 0.0 1011407
12:00+21sw67591 0.0 10111191
15:00+22ssw6857100 0.0 10121849
18:00+20sw48701 0.8 1012449
21:00+15w338542 0.8 101345
16 may, sun
sun1600:00+13w1189100 0.0 101411
03:00+13ne11895 0.0 101410
06:00+13ne22870 0.0 101522
09:00+19e226946 0.0 1015385
12:00+22e2254100 0.0 10141090
15:00+23e34515 0.0 10131705
18:00+23ene246514 0.0 1013178
21:00+18ne4677100 0.0 101285